QPF
0.02 0.02 0.01 0.01 0.01 0.01 0.01 0.02 0.06 0.06 0.05 0.04 0.04 0.04 0.05 0.04 0.03 0.03 0.02 0.02 0.02 0.05 0.06 0.04 0.04 0.04 0.04 0.04 0.04 0.03 0.04 0.04 0.04 0.04 0.06 0.04 0.03 0.03 0.03 0.04 0.04 0.03 0.04
0.01 0.02 0.02 0.01 0.01 0.01 0.02 0.04 0.07 0.07 0.05 0.04 0.03 0.03 0.04 0.03 0.02 0.02 0.03 0.02 0.03 0.04 0.04 0.04 0.06 0.05 0.05 0.05 0.05 0.05 0.05 0.04 0.03 0.04 0.07 0.08 0.08 0.06 0.05 0.04 0.04 0.03 0.03
0.01 0.01 0.02 0.02 0.01 0.02 0.03 0.04 0.04 0.07 0.07 0.05 0.03 0.03 0.04 0.05 0.04 0.04 0.05 0.03 0.03 0.04 0.03 0.03 0.04 0.06 0.07 0.07 0.07 0.07 0.05 0.05 0.04 0.04 0.06 0.08 0.11 0.10 0.07 0.05 0.04 0.03 0.03
0.01 0.01 0.01 0.01 0.02 0.02 0.03 0.03 0.04 0.06 0.07 0.06 0.05 0.05 0.05 0.06 0.06 0.05 0.05 0.05 0.03 0.03 0.03 0.03 0.04 0.07 0.06 0.06 0.06 0.05 0.06 0.06 0.05 0.05 0.06 0.07 0.09 0.10 0.10 0.08 0.05 0.02 0.02
0.01 0.01 0.01 0.01 0.01 0.01 0.01 0.01 0.03 0.04 0.05 0.05 0.06 0.06 0.06 0.06 0.05 0.04 0.04 0.04 0.04 0.03 0.03 0.05 0.06 0.05 0.04 0.04 0.05 0.06 0.06 0.08 0.09 0.10 0.10 0.11 0.10 0.09 0.09 0.09 0.08 0.06 0.04
0.01 0.00 0.01 0.01 0.02 0.02 0.01 0.01 0.02 0.03 0.04 0.05 0.05 0.06 0.06 0.06 0.05 0.04 0.04 0.04 0.04 0.04 0.03 0.04 0.04 0.04 0.04 0.04 0.05 0.05 0.05 0.06 0.08 0.07 0.06 0.07 0.07 0.07 0.08 0.08 0.09 0.09 0.06
0.00 0.00 0.00 0.01 0.01 0.01 0.01 0.02 0.03 0.04 0.04 0.04 0.04 0.05 0.05 0.05 0.04 0.03 0.04 0.04 0.04 0.04 0.03 0.03 0.04 0.04 0.04 0.04 0.04 0.04 0.03 0.03 0.04 0.05 0.05 0.06 0.06 0.07 0.07 0.08 0.09 0.08 0.07
0.00 0.01 0.00 0.00 0.00 0.00 0.00 0.01 0.02 0.03 0.02 0.02 0.02 0.04 0.04 0.04 0.03 0.03 0.03 0.03 0.03 0.04 0.04 0.03 0.04 0.04 0.03 0.03 0.05 0.04 0.04 0.04 0.04 0.04 0.05 0.05 0.05 0.06 0.06 0.08 0.10 0.09 0.08
0.01 0.01 0.00 0.00 0.00 0.00 0.00 0.01 0.01 0.02 0.02 0.02 0.03 0.03 0.03 0.03 0.03 0.03 0.03 0.03 0.03 0.04 0.05 0.03 0.03 0.03 0.03 0.03 0.04 0.04 0.03 0.04 0.04 0.04 0.04 0.04 0.03 0.05 0.05 0.06 0.07 0.08 0.08
0.01 0.01 0.00 0.00 0.00 0.00 0.01 0.01 0.01 0.02 0.03 0.04 0.03 0.03 0.03 0.02 0.02 0.02 0.02 0.03 0.04 0.05 0.04 0.03 0.02 0.02 0.03 0.02 0.03 0.03 0.02 0.03 0.03 0.04 0.04 0.03 0.02 0.03 0.04 0.05 0.06 0.06 0.06
0.00 0.01 0.00 0.00 0.00 0.00 0.00 0.00 0.01 0.01 0.02 0.03 0.04 0.03 0.03 0.02 0.02 0.01 0.01 0.02 0.03 0.03 0.03 0.02 0.02 0.02 0.03 0.02 0.03 0.02 0.02 0.02 0.03 0.03 0.03 0.03 0.02 0.02 0.04 0.06 0.06 0.05 0.05
0.00 0.00 0.00 0.00 0.00 0.00 0.00 0.00 0.00 0.01 0.04 0.07 0.06 0.04 0.03 0.02 0.01 0.01 0.01 0.01 0.01 0.01 0.01 0.02 0.01 0.01 0.01 0.02 0.02 0.02 0.03 0.03 0.02 0.02 0.02 0.03 0.03 0.03 0.03 0.05 0.06 0.07 0.08
0.00 0.00 0.00 0.00 0.00 0.00 0.01 0.01 0.02 0.06 0.10 0.10 0.08 0.04 0.03 0.03 0.02 0.01 0.01 0.00 0.01 0.01 0.01 0.01 0.01 0.01 0.01 0.02 0.02 0.02 0.03 0.03 0.03 0.02 0.02 0.02 0.03 0.03 0.04 0.03 0.05 0.07 0.09
0.00 0.00 0.00 0.00 0.00 0.00 0.01 0.03 0.04 0.08 0.09 0.06 0.04 0.03 0.03 0.02 0.01 0.01 0.01 0.01 0.01 0.01 0.01 0.01 0.01 0.01 0.01 0.01 0.01 0.01 0.02 0.02 0.02 0.02 0.02 0.02 0.02 0.03 0.03 0.03 0.04 0.05 0.06
0.00 0.00 0.00 0.00 0.00 0.01 0.01 0.03 0.05 0.05 0.04 0.03 0.02 0.02 0.01 0.01 0.01 0.01 0.01 0.01 0.00 0.00 0.01 0.01 0.00 0.00 0.00 0.00 0.01 0.01 0.01 0.02 0.02 0.02 0.02 0.02 0.02 0.03 0.04 0.04 0.05 0.06 0.05
0.01 0.01 0.00 0.00 0.01 0.01 0.01 0.02 0.04 0.03 0.03 0.03 0.02 0.02 0.01 0.01 0.01 0.01 0.01 0.00 0.01 0.01 0.01 0.00 0.00 0.00 0.00 0.00 0.00 0.01 0.02 0.02 0.01 0.02 0.03 0.03 0.02 0.03 0.03 0.03 0.04 0.06 0.06
0.01 0.01 0.01 0.01 0.01 0.01 0.01 0.01 0.02 0.02 0.02 0.03 0.02 0.01 0.01 0.01 0.01 0.01 0.00 0.00 0.00 0.00 0.00 0.00 0.00 0.00 0.00 0.00 0.00 0.01 0.01 0.02 0.02 0.03 0.05 0.05 0.04 0.04 0.04 0.05 0.06 0.06 0.07
0.01 0.01 0.01 0.01 0.01 0.02 0.02 0.02 0.02 0.03 0.03 0.02 0.02 0.01 0.01 0.01 0.01 0.00 0.00 0.01 0.00 0.00 0.00 0.00 0.01 0.01 0.01 0.00 0.00 0.01 0.01 0.02 0.03 0.03 0.05 0.08 0.07 0.05 0.05 0.05 0.07 0.08 0.07
0.01 0.01 0.01 0.01 0.01 0.01 0.01 0.01 0.01 0.02 0.02 0.02 0.02 0.02 0.02 0.02 0.01 0.02 0.02 0.02 0.02 0.02 0.02 0.02 0.02 0.02 0.02 0.02 0.01 0.01 0.02 0.02 0.02 0.02 0.02 0.04 0.06 0.07 0.08 0.06 0.05 0.06 0.08
0.00 0.00 0.00 0.00 0.00 0.00 0.00 0.00 0.00 0.00 0.01 0.01 0.01 0.01 0.01 0.01 0.01 0.01 0.01 0.01 0.02 0.01 0.01 0.01 0.01 0.01 0.01 0.01 0.01 0.01 0.01 0.02 0.01 0.01 0.02 0.02 0.04 0.06 0.06 0.05 0.05 0.05 0.07
0.00 0.00 0.00 0.00 0.00 0.00 0.00 0.00 0.00 0.00 0.01 0.01 0.00 0.00 0.00 0.00 0.01 0.01 0.01 0.01 0.01 0.00 0.01 0.01 0.01 0.01 0.01 0.01 0.01 0.01 0.01 0.01 0.02 0.02 0.02 0.03 0.05 0.07 0.08 0.06 0.06 0.07 0.07
0.00 0.00 0.00 0.00 0.00 0.00 0.00 0.01 0.01 0.01 0.01 0.01 0.01 0.00 0.00 0.00 0.00 0.00 0.00 0.01 0.01 0.00 0.00 0.01 0.01 0.01 0.01 0.01 0.01 0.01 0.01 0.01 0.02 0.03 0.04 0.05 0.06 0.06 0.06 0.06 0.07 0.07 0.07
0.00 0.00 0.00 0.00 0.00 0.00 0.00 0.01 0.01 0.01 0.01 0.01 0.01 0.00 0.00 0.00 0.00 0.00 0.01 0.01 0.01 0.01 0.01 0.01 0.01 0.01 0.01 0.01 0.01 0.01 0.01 0.02 0.02 0.04 0.05 0.05 0.06 0.07 0.07 0.06 0.06 0.05 0.04
0.00 0.00 0.00 0.01 0.01 0.01 0.01 0.01 0.01 0.01 0.01 0.01 0.01 0.01 0.01 0.01 0.01 0.01 0.01 0.02 0.01 0.01 0.01 0.01 0.00 0.01 0.01 0.01 0.01 0.01 0.01 0.02 0.02 0.03 0.06 0.08 0.07 0.07 0.08 0.07 0.04 0.03 0.03
0.00 0.00 0.00 0.01 0.01 0.01 0.01 0.01 0.02 0.01 0.01 0.01 0.01 0.03 0.03 0.02 0.02 0.02 0.01 0.01 0.02 0.02 0.02 0.01 0.01 0.01 0.01 0.02 0.02 0.01 0.01 0.01 0.02 0.03 0.04 0.08 0.11 0.09 0.07 0.06 0.06 0.06 0.06
0.00 0.00 0.00 0.01 0.01 0.01 0.01 0.01 0.02 0.01 0.01 0.01 0.02 0.03 0.03 0.02 0.03 0.02 0.01 0.01 0.01 0.01 0.01 0.02 0.01 0.01 0.01 0.02 0.01 0.01 0.02 0.02 0.04 0.04 0.05 0.09 0.11 0.08 0.06 0.04 0.03 0.04 0.05
MSLP
1010.54 1010.80 1011.05 1011.29 1011.52 1011.77 1012.04 1012.35 1012.71 1013.09 1013.47 1013.82 1014.09 1014.28 1014.38 1014.39 1014.35 1014.30 1014.26 1014.25 1014.30 1014.38 1014.49 1014.59 1014.66 1014.68 1014.64 1014.56 1014.46 1014.36 1014.31 1014.31 1014.38 1014.53 1014.73 1014.97 1015.22 1015.44 1015.61 1015.72 1015.77 1015.75 1015.68
1010.04 1010.35 1010.67 1010.96 1011.24 1011.52 1011.83 1012.17 1012.55 1012.97 1013.38 1013.74 1014.03 1014.23 1014.31 1014.31 1014.23 1014.14 1014.07 1014.04 1014.08 1014.16 1014.28 1014.40 1014.48 1014.51 1014.48 1014.40 1014.29 1014.18 1014.12 1014.14 1014.25 1014.45 1014.72 1015.03 1015.36 1015.66 1015.91 1016.08 1016.18 1016.20 1016.16
1009.40 1009.78 1010.16 1010.52 1010.86 1011.19 1011.54 1011.92 1012.34 1012.78 1013.21 1013.60 1013.90 1014.10 1014.19 1014.17 1014.08 1013.98 1013.89 1013.86 1013.90 1014.00 1014.13 1014.27 1014.38 1014.42 1014.39 1014.31 1014.19 1014.08 1014.02 1014.04 1014.17 1014.39 1014.71 1015.07 1015.45 1015.81 1016.11 1016.33 1016.47 1016.54 1016.54
1008.64 1009.07 1009.52 1009.95 1010.35 1010.75 1011.15 1011.58 1012.03 1012.51 1012.96 1013.37 1013.70 1013.91 1014.00 1013.99 1013.92 1013.82 1013.75 1013.73 1013.79 1013.91 1014.08 1014.24 1014.38 1014.44 1014.43 1014.35 1014.24 1014.12 1014.06 1014.07 1014.20 1014.43 1014.75 1015.14 1015.54 1015.92 1016.24 1016.49 1016.67 1016.77 1016.81
1007.81 1008.27 1008.77 1009.26 1009.72 1010.18 1010.64 1011.11 1011.61 1012.12 1012.61 1013.05 1013.40 1013.65 1013.77 1013.79 1013.75 1013.68 1013.64 1013.66 1013.75 1013.91 1014.12 1014.33 1014.49 1014.59 1014.61 1014.55 1014.45 1014.34 1014.27 1014.27 1014.39 1014.60 1014.90 1015.27 1015.65 1016.02 1016.34 1016.59 1016.78 1016.90 1016.97
1006.97 1007.43 1007.94 1008.46 1008.98 1009.48 1009.99 1010.52 1011.06 1011.61 1012.15 1012.63 1013.02 1013.31 1013.48 1013.55 1013.56 1013.55 1013.56 1013.63 1013.78 1013.99 1014.24 1014.50 1014.71 1014.86 1014.92 1014.90 1014.82 1014.72 1014.65 1014.65 1014.74 1014.91 1015.18 1015.50 1015.83 1016.16 1016.44 1016.67 1016.84 1016.97 1017.06
1006.19 1006.61 1007.10 1007.63 1008.16 1008.69 1009.24 1009.80 1010.39 1010.98 1011.56 1012.10 1012.55 1012.90 1013.14 1013.28 1013.35 1013.41 1013.49 1013.63 1013.83 1014.11 1014.42 1014.73 1015.00 1015.20 1015.31 1015.34 1015.30 1015.23 1015.17 1015.16 1015.22 1015.36 1015.57 1015.82 1016.10 1016.36 1016.59 1016.77 1016.92 1017.03 1017.12
1005.53 1005.88 1006.32 1006.81 1007.33 1007.86 1008.42 1009.01 1009.63 1010.27 1010.90 1011.48 1012.00 1012.42 1012.74 1012.96 1013.12 1013.26 1013.42 1013.62 1013.90 1014.23 1014.60 1014.97 1015.30 1015.56 1015.73 1015.81 1015.82 1015.79 1015.76 1015.75 1015.79 1015.90 1016.05 1016.24 1016.44 1016.63 1016.80 1016.93 1017.03 1017.12 1017.20
1005.07 1005.32 1005.67 1006.09 1006.56 1007.06 1007.61 1008.20 1008.84 1009.51 1010.18 1010.82 1011.40 1011.89 1012.29 1012.61 1012.86 1013.08 1013.32 1013.60 1013.94 1014.33 1014.75 1015.18 1015.56 1015.88 1016.12 1016.26 1016.33 1016.35 1016.35 1016.36 1016.40 1016.47 1016.59 1016.72 1016.86 1016.99 1017.10 1017.18 1017.24 1017.30 1017.36
1004.81 1004.96 1005.20 1005.53 1005.92 1006.36 1006.87 1007.44 1008.07 1008.76 1009.46 1010.15 1010.79 1011.36 1011.84 1012.24 1012.58 1012.89 1013.21 1013.56 1013.95 1014.39 1014.87 1015.34 1015.77 1016.14 1016.43 1016.64 1016.77 1016.84 1016.89 1016.93 1016.98 1017.06 1017.15 1017.25 1017.35 1017.43 1017.50 1017.54 1017.57 1017.60 1017.64
1004.77 1004.81 1004.95 1005.16 1005.45 1005.81 1006.25 1006.78 1007.39 1008.07 1008.79 1009.52 1010.21 1010.84 1011.40 1011.88 1012.31 1012.70 1013.09 1013.50 1013.95 1014.43 1014.94 1015.44 1015.91 1016.33 1016.67 1016.93 1017.12 1017.25 1017.35 1017.44 1017.52 1017.61 1017.71 1017.81 1017.89 1017.96 1018.00 1018.03 1018.04 1018.05 1018.06
1004.90 1004.85 1004.87 1004.98 1005.15 1005.42 1005.78 1006.25 1006.82 1007.49 1008.21 1008.95 1009.69 1010.38 1011.00 1011.56 1012.07 1012.53 1012.99 1013.46 1013.95 1014.47 1015.00 1015.52 1016.02 1016.46 1016.83 1017.14 1017.39 1017.58 1017.74 1017.88 1018.01 1018.14 1018.27 1018.39 1018.48 1018.55 1018.59 1018.61 1018.62 1018.61 1018.61
1005.13 1005.01 1004.94 1004.94 1005.01 1005.17 1005.45 1005.85 1006.37 1007.00 1007.71 1008.47 1009.23 1009.96 1010.65 1011.28 1011.86 1012.40 1012.92 1013.44 1013.97 1014.52 1015.07 1015.60 1016.11 1016.56 1016.97 1017.31 1017.60 1017.85 1018.07 1018.27 1018.46 1018.64 1018.82 1018.97 1019.09 1019.18 1019.24 1019.26 1019.27 1019.26 1019.24
1005.39 1005.22 1005.08 1004.99 1004.96 1005.03 1005.21 1005.54 1006.00 1006.59 1007.29 1008.04 1008.82 1009.60 1010.34 1011.03 1011.68 1012.29 1012.88 1013.45 1014.02 1014.59 1015.15 1015.70 1016.21 1016.68 1017.10 1017.47 1017.80 1018.09 1018.37 1018.63 1018.87 1019.11 1019.33 1019.52 1019.68 1019.80 1019.87 1019.91 1019.92 1019.90 1019.88
1005.63 1005.43 1005.23 1005.06 1004.95 1004.93 1005.03 1005.28 1005.69 1006.23 1006.90 1007.64 1008.44 1009.24 1010.03 1010.79 1011.51 1012.19 1012.84 1013.47 1014.08 1014.68 1015.26 1015.81 1016.32 1016.80 1017.23 1017.63 1017.99 1018.32 1018.64 1018.95 1019.25 1019.53 1019.80 1020.03 1020.21 1020.35 1020.44 1020.48 1020.49 1020.47 1020.43
1005.82 1005.60 1005.35 1005.11 1004.92 1004.83 1004.86 1005.04 1005.38 1005.88 1006.51 1007.25 1008.05 1008.88 1009.71 1010.53 1011.31 1012.06 1012.77 1013.46 1014.12 1014.75 1015.35 1015.92 1016.44 1016.93 1017.38 1017.79 1018.18 1018.54 1018.90 1019.24 1019.57 1019.89 1020.18 1020.43 1020.63 1020.78 1020.87 1020.91 1020.91 1020.88 1020.84
1005.97 1005.72 1005.43 1005.13 1004.87 1004.71 1004.67 1004.78 1005.07 1005.52 1006.12 1006.84 1007.63 1008.48 1009.35 1010.21 1011.05 1011.86 1012.64 1013.38 1014.09 1014.76 1015.39 1015.98 1016.53 1017.03 1017.50 1017.93 1018.34 1018.73 1019.11 1019.47 1019.83 1020.15 1020.45 1020.70 1020.90 1021.04 1021.12 1021.15 1021.14 1021.10 1021.04
1006.10 1005.82 1005.47 1005.12 1004.80 1004.58 1004.48 1004.53 1004.77 1005.17 1005.73 1006.42 1007.20 1008.05 1008.94 1009.83 1010.72 1011.58 1012.41 1013.20 1013.96 1014.67 1015.35 1015.97 1016.54 1017.07 1017.57 1018.02 1018.45 1018.86 1019.26 1019.63 1019.98 1020.31 1020.59 1020.82 1020.99 1021.11 1021.17 1021.18 1021.15 1021.10 1021.03
1006.27 1005.93 1005.54 1005.13 1004.76 1004.48 1004.33 1004.33 1004.51 1004.87 1005.39 1006.04 1006.80 1007.63 1008.52 1009.42 1010.33 1011.22 1012.08 1012.92 1013.71 1014.47 1015.18 1015.84 1016.45 1017.02 1017.55 1018.04 1018.49 1018.92 1019.33 1019.70 1020.04 1020.34 1020.59 1020.79 1020.93 1021.01 1021.04 1021.02 1020.98 1020.91 1020.84
1006.50 1006.11 1005.67 1005.21 1004.80 1004.47 1004.28 1004.24 1004.37 1004.68 1005.15 1005.76 1006.47 1007.28 1008.13 1009.02 1009.91 1010.81 1011.68 1012.53 1013.35 1014.14 1014.88 1015.59 1016.24 1016.86 1017.43 1017.96 1018.45 1018.90 1019.32 1019.68 1020.01 1020.27 1020.49 1020.64 1020.73 1020.77 1020.77 1020.73 1020.67 1020.60 1020.53
1006.81 1006.37 1005.88 1005.39 1004.95 1004.60 1004.38 1004.30 1004.40 1004.67 1005.08 1005.63 1006.29 1007.04 1007.84 1008.68 1009.54 1010.40 1011.25 1012.09 1012.92 1013.72 1014.49 1015.23 1015.94 1016.60 1017.23 1017.81 1018.34 1018.81 1019.23 1019.60 1019.90 1020.13 1020.30 1020.41 1020.46 1020.46 1020.42 1020.36 1020.30 1020.23 1020.17
1007.16 1006.69 1006.18 1005.69 1005.24 1004.88 1004.65 1004.56 1004.63 1004.85 1005.22 1005.71 1006.30 1006.96 1007.69 1008.45 1009.24 1010.04 1010.84 1011.65 1012.45 1013.25 1014.04 1014.81 1015.56 1016.28 1016.96 1017.59 1018.16 1018.67 1019.10 1019.46 1019.74 1019.94 1020.06 1020.13 1020.14 1020.11 1020.05 1019.98 1019.92 1019.87 1019.83
1007.50 1007.03 1006.53 1006.06 1005.63 1005.30 1005.08 1004.99 1005.05 1005.24 1005.56 1005.98 1006.49 1007.07 1007.70 1008.36 1009.06 1009.77 1010.50 1011.25 1012.01 1012.79 1013.58 1014.37 1015.16 1015.92 1016.65 1017.33 1017.94 1018.48 1018.92 1019.28 1019.54 1019.71 1019.80 1019.82 1019.80 1019.75 1019.68 1019.62 1019.57 1019.53 1019.52
1007.76 1007.32 1006.88 1006.45 1006.08 1005.80 1005.61 1005.55 1005.60 1005.77 1006.05 1006.41 1006.84 1007.32 1007.85 1008.40 1008.99 1009.60 1010.24 1010.91 1011.62 1012.37 1013.15 1013.95 1014.76 1015.56 1016.33 1017.05 1017.70 1018.26 1018.71 1019.06 1019.30 1019.44 1019.50 1019.50 1019.46 1019.39 1019.33 1019.28 1019.25 1019.25 1019.27
1007.87 1007.51 1007.14 1006.80 1006.51 1006.28 1006.15 1006.12 1006.19 1006.35 1006.59 1006.90 1007.26 1007.65 1008.08 1008.53 1009.01 1009.51 1010.06 1010.66 1011.31 1012.01 1012.77 1013.57 1014.39 1015.21 1016.01 1016.75 1017.42 1017.99 1018.44 1018.78 1019.00 1019.12 1019.16 1019.14 1019.09 1019.03 1018.98 1018.95 1018.96 1019.00 1019.06
1007.81 1007.54 1007.27 1007.02 1006.81 1006.67 1006.60 1006.61 1006.69 1006.85 1007.07 1007.33 1007.63 1007.95 1008.29 1008.66 1009.04 1009.46 1009.93 1010.46 1011.05 1011.71 1012.44 1013.22 1014.04 1014.86 1015.67 1016.42 1017.09 1017.66 1018.10 1018.42 1018.63 1018.73 1018.75 1018.72 1018.68 1018.63 1018.61 1018.63 1018.68 1018.77 1018.87
Thickness
5824 5823 5820 5818 5814 5810 5805 5803 5800 5798 5796 5794 5791 5789 5787 5787 5786 5784 5781 5779 5777 5776 5775 5775 5772 5771 5770 5767 5767 5766 5764 5764 5764 5763 5763 5766 5768 5766 5764 5763 5763 5761 5758
5824 5821 5820 5818 5815 5810 5806 5803 5800 5799 5797 5795 5792 5790 5788 5788 5786 5784 5780 5778 5777 5775 5776 5773 5773 5771 5768 5766 5765 5763 5762 5763 5763 5760 5758 5756 5759 5761 5764 5762 5760 5759 5758
5825 5822 5819 5818 5815 5811 5808 5806 5802 5800 5797 5796 5794 5791 5787 5786 5784 5781 5780 5778 5776 5775 5774 5772 5772 5769 5769 5767 5764 5763 5760 5758 5760 5760 5756 5751 5750 5754 5759 5758 5757 5756 5755
5829 5825 5821 5818 5816 5814 5811 5807 5802 5799 5797 5795 5793 5789 5785 5782 5781 5781 5780 5778 5776 5775 5774 5772 5770 5768 5768 5765 5765 5764 5761 5757 5756 5757 5756 5754 5752 5747 5747 5752 5754 5754 5753
5831 5827 5824 5820 5818 5816 5812 5808 5802 5798 5796 5794 5792 5788 5786 5784 5783 5781 5778 5777 5777 5775 5773 5771 5769 5767 5767 5765 5763 5761 5759 5758 5755 5754 5753 5752 5750 5750 5744 5740 5745 5749 5751
5832 5828 5825 5822 5818 5816 5812 5808 5802 5798 5796 5793 5791 5787 5784 5782 5780 5778 5777 5776 5776 5774 5772 5770 5768 5766 5765 5763 5761 5759 5757 5755 5753 5753 5752 5750 5747 5746 5744 5740 5740 5741 5746
5831 5827 5823 5819 5816 5813 5811 5808 5802 5797 5795 5792 5790 5787 5784 5781 5778 5777 5775 5774 5774 5772 5770 5769 5766 5765 5763 5761 5760 5757 5756 5754 5751 5749 5750 5749 5748 5748 5745 5742 5740 5739 5742
5832 5828 5824 5820 5817 5814 5810 5806 5801 5796 5794 5791 5788 5786 5783 5782 5780 5776 5775 5773 5772 5771 5769 5766 5764 5763 5761 5760 5758 5757 5755 5753 5750 5749 5747 5747 5748 5748 5746 5743 5739 5736 5737
5831 5828 5825 5822 5818 5814 5810 5806 5801 5796 5793 5790 5786 5783 5781 5778 5777 5775 5773 5773 5770 5769 5766 5764 5763 5761 5759 5757 5755 5754 5751 5750 5749 5748 5747 5746 5746 5745 5745 5743 5740 5735 5731
5829 5827 5825 5822 5819 5815 5810 5806 5801 5795 5792 5788 5785 5783 5779 5776 5775 5773 5770 5768 5767 5765 5763 5762 5760 5758 5756 5754 5752 5751 5749 5746 5745 5744 5742 5741 5744 5743 5742 5740 5739 5737 5733
5826 5825 5823 5821 5818 5814 5809 5803 5799 5794 5790 5786 5782 5779 5776 5774 5772 5770 5768 5766 5764 5761 5759 5758 5756 5754 5753 5751 5749 5748 5745 5743 5742 5741 5739 5737 5737 5737 5738 5737 5735 5734 5731
5823 5822 5819 5816 5813 5810 5806 5801 5797 5793 5788 5785 5780 5776 5774 5771 5768 5767 5764 5762 5760 5758 5757 5755 5753 5751 5749 5747 5745 5743 5742 5740 5738 5737 5735 5734 5734 5731 5732 5731 5730 5729 5727
5817 5816 5813 5810 5807 5805 5802 5799 5795 5791 5788 5783 5778 5774 5771 5768 5765 5763 5761 5759 5756 5755 5753 5751 5749 5747 5745 5743 5741 5739 5737 5736 5735 5733 5731 5729 5728 5725 5725 5724 5725 5724 5724
5808 5807 5805 5802 5801 5798 5796 5793 5791 5789 5785 5780 5776 5771 5768 5766 5763 5760 5757 5755 5752 5750 5748 5747 5745 5743 5742 5740 5737 5735 5733 5732 5730 5728 5727 5724 5722 5720 5718 5718 5717 5717 5716
5801 5799 5798 5796 5794 5791 5789 5787 5785 5783 5780 5776 5772 5769 5766 5763 5760 5757 5754 5751 5749 5748 5745 5742 5740 5739 5738 5735 5732 5730 5728 5726 5724 5722 5721 5720 5717 5714 5712 5712 5711 5710 5709
5794 5793 5792 5790 5788 5786 5783 5781 5778 5776 5774 5770 5767 5765 5762 5759 5756 5753 5750 5747 5745 5743 5740 5737 5735 5734 5733 5728 5723 5721 5721 5720 5718 5716 5715 5714 5712 5709 5706 5703 5701 5700 5700
5789 5787 5786 5785 5783 5781 5779 5775 5773 5771 5768 5765 5763 5760 5757 5754 5751 5749 5746 5742 5740 5738 5735 5733 5731 5728 5724 5720 5716 5714 5714 5714 5712 5710 5708 5708 5708 5704 5703 5699 5696 5694 5692
5783 5782 5783 5781 5780 5778 5776 5772 5769 5765 5762 5760 5757 5755 5752 5749 5747 5744 5741 5738 5736 5733 5731 5729 5726 5723 5719 5714 5711 5708 5708 5708 5706 5704 5702 5700 5698 5698 5694 5693 5692 5690 5688
5778 5777 5778 5777 5774 5773 5770 5767 5763 5760 5757 5755 5752 5751 5748 5745 5742 5738 5736 5734 5731 5728 5726 5724 5721 5717 5714 5709 5705 5702 5704 5703 5701 5699 5697 5694 5691 5687 5684 5684 5683 5682 5681
5773 5772 5772 5771 5767 5765 5764 5760 5757 5754 5751 5750 5747 5745 5742 5740 5737 5734 5731 5729 5726 5723 5721 5718 5716 5713 5710 5705 5700 5696 5699 5697 5696 5694 5691 5686 5683 5678 5675 5676 5676 5674 5673
5764 5763 5763 5761 5759 5757 5754 5751 5749 5747 5747 5745 5742 5739 5736 5734 5732 5728 5725 5723 5720 5718 5715 5712 5710 5708 5705 5700 5694 5690 5692 5691 5689 5688 5686 5682 5674 5670 5668 5667 5667 5665 5664
5754 5754 5752 5750 5749 5748 5745 5742 5740 5741 5740 5737 5734 5732 5730 5728 5726 5722 5719 5717 5713 5710 5708 5706 5704 5703 5700 5695 5689 5685 5682 5681 5682 5680 5679 5674 5666 5663 5661 5660 5658 5656 5655
5744 5744 5743 5740 5739 5738 5736 5733 5732 5732 5730 5728 5726 5724 5723 5721 5719 5716 5713 5710 5707 5705 5704 5702 5700 5698 5696 5691 5684 5680 5676 5674 5673 5673 5668 5663 5659 5656 5655 5652 5651 5650 5652
5734 5735 5733 5731 5729 5729 5728 5726 5725 5724 5722 5720 5718 5717 5716 5714 5712 5710 5709 5706 5702 5700 5697 5696 5694 5692 5690 5687 5682 5678 5673 5668 5666 5664 5660 5655 5651 5649 5647 5645 5644 5644 5644
5725 5725 5723 5721 5720 5720 5718 5718 5717 5716 5714 5713 5711 5711 5709 5707 5704 5703 5700 5698 5696 5694 5689 5689 5687 5684 5682 5676 5670 5668 5668 5666 5663 5658 5655 5652 5649 5646 5643 5641 5639 5637 5635
5716 5715 5714 5713 5713 5712 5710 5709 5709 5707 5705 5704 5704 5704 5703 5700 5698 5695 5692 5687 5686 5682 5679 5677 5675 5674 5670 5665 5661 5658 5656 5653 5651 5650 5650 5646 5643 5640 5637 5635 5632 5629 5626